This is the latest recevied weather packets stored in our database for station/object IT9RID. If no packets are shown the sender has not sent any weather packets the latest 10 day(s).
| Time | Temp. | Humidity | Pressure | Rain* | Wind** | Luminosity | Snow |
|---|---|---|---|---|---|---|---|
| 1787922458 | 36.67° C | 39% | 1015.3 hPa | 0 mm | - | - | - |
| 1787921857 | 36.11° C | 41% | 1015.4 hPa | 0 mm | - | - | - |
| 1787921257 | 35.56° C | 42% | 1015.6 hPa | 0 mm | - | - | - |
| 1787920657 | 35.56° C | 43% | 1015.8 hPa | 0 mm | - | - | - |
| 1787920057 | 35° C | 43% | 1015.9 hPa | 0 mm | - | - | - |
| 1787919457 | 35° C | 43% | 1016.1 hPa | 0 mm | - | - | - |
| 1787918856 | 33.89° C | 47% | 1016.3 hPa | 0 mm | - | - | - |
| 1787918256 | 33.89° C | 48% | 1016.4 hPa | 0 mm | - | - | - |
| 1787917656 | 33.89° C | 47% | 1016.5 hPa | 0 mm | - | - | - |
| 1787917056 | 33.89° C | 51% | 1016.5 hPa | 0 mm | - | - | - |
| 1787916456 | 34.44° C | 50% | 1016.6 hPa | 0 mm | - | - | - |
| 1787915856 | 33.89° C | 51% | 1016.6 hPa | 0 mm | - | - | - |
| 1787914656 | 33.89° C | 50% | 1016.6 hPa | 0 mm | - | - | - |
| 1787914055 | 33.89° C | 52% | 1016.6 hPa | 0 mm | - | - | - |
| 1787913455 | 33.89° C | 54% | 1016.6 hPa | 0 mm | - | - | - |
| 1787912855 | 33.89° C | 52% | 1016.6 hPa | 0 mm | - | - | - |
| 1787912257 | 34.44° C | 51% | 1016.6 hPa | 0 mm | - | - | - |
| 1787911655 | 34.44° C | 51% | 1016.7 hPa | 0 mm | - | - | - |
| 1787911054 | 34.44° C | 47% | 1016.8 hPa | 0 mm | - | - | - |
| 1787910456 | 33.89° C | 50% | 1016.9 hPa | 0 mm | - | - | - |
| 1787909855 | 33.89° C | 48% | 1017 hPa | 0 mm | - | - | - |
| 1787909254 | 33.89° C | 45% | 1017 hPa | 0 mm | - | - | - |
| 1787908654 | 33.89° C | 46% | 1017.1 hPa | 0 mm | - | - | - |
| 1787908054 | 33.89° C | 46% | 1017.1 hPa | 0 mm | - | - | - |
| 1787907454 | 33.33° C | 46% | 1017 hPa | 0 mm | - | - | - |
* Rain latest hour (hover to see other rain measurements)
** Current wind speed in m/s (hover to see current wind gust speed)